CALSPHERE 1 1 00900U 64063C 10065.76921037 .00000245 00000-0 26561-3 0 282 2 00900 090.1571 331.4529 0027473 162.5694 197.6404 13.70562036255430 CALSPHERE 2 1 00902U 64063E 10065.94696505 .00000075 00000-0 10000-3 0 2951 2 00902 090.1598 334.3157 0016764 201.2262 158.8178 13.52472710 52883 LCS 1 1 01361U 65034C 10067.91380818 +.00000009 +00000-0 +10000-3 0 02087 2 01361 032.1387 250.5420 0011221 223.9807 135.9798 09.89278018621578 TEMPSAT 1 1 01512U 65065E 10067.70234538 +.00000059 +00000-0 +10000-3 0 03539 2 01512 089.8008 295.3906 0070923 019.4080 340.9727 13.33265488167875 CALSPHERE 4(A) 1 01520U 65065H 10067.95079684 +.00000059 +00000-0 +10000-3 0 05097 2 01520 090.1750 088.0135 0069123 302.7783 056.6712 13.35333279169583 OPS 5712 (P/L 160) 1 02826U 67053A 10067.72975152 +.00000450 +00000-0 +16680-3 0 09613 2 02826 069.9336 279.8500 0006967 166.8618 193.2671 14.38483103205338 OPS 5712 (P/L 153) 1 02874U 67053H 10066.04439794 -.00000007 00000-0 33631-4 0 3582 2 02874 069.9697 249.3876 0007591 332.0155 028.0537 13.95937734177224 SURCAL 150B 1 02909U 67053J 10066.10648182 .00000597 00000-0 18149-3 0 1410 2 02909 069.9547 090.8101 0006722 279.4564 080.5805 14.46744399210993 RIGIDSPHERE 2 (LCS 4) 1 05398U 71067E 10067.68828664 +.00000158 +00000-0 +51816-4 0 08008 2 05398 087.6329 176.9514 0066677 028.6872 331.7965 14.31226504022398 OPS 8180 (RADCAT) 1 06212U 72076A 10067.75906249 +.00003742 +00000-0 +13198-3 0 09608 2 06212 098.5690 121.5391 0003775 152.3581 207.7818 15.30057548163314